Regional Weather Roundup
Issued by NWS New Orleans/Baton Rouge, LA

Home | Current Version | Previous Version | Text Only | Print | Product List | Glossary On
Versions: 1 2 3 4 5 6 7 8 9 10 11 12 13 14 15 16 17 18 19 20 21 22 23 24 25 26 27 28 29 30 31 32 33 34 35 36 37 38 39 40 41 42 43 44 45 46 47 48 49 50
778
ASUS44 KLIX 232105
RWRLIX
NEW ORLEANS REGIONAL WEATHER ROUNDUP
NATIONAL WEATHER SERVICE NEW ORLEANS LA
400 PM CDT WED APR 23 2014

NOTE: "FAIR" INDICATES FEW OR NO CLOUDS BELOW 12,000 FEET WITH NO
      SIGNIFICANT WEATHER AND/OR OBSTRUCTIONS TO VISIBILITY.
      SKY/WX - SKY CONDITION AND SIGNIFICANT WEATHER.
      TMP - AIR TEMPERATURE.     DP    - DEWPOINT TEMPERATURE.
      RH  - RELATIVE HUMIDITY.   PRES  - PRESSURE.
      HI  - HEAT INDEX.          WCI   - WIND CHILL INDEX.

*  THESE STATIONS ARE NOT NWS OR FAA STATIONS AND ARE NOT UNDER
   NWS QUALITY CONTROL.

LAZ038-040-048-061>063-065>067-069-232200-
SOUTHEAST LOUISIANA

CITY           SKY/WX    TMP DP  RH WIND       PRES   REMARKS
N.O. AUDUBON     N/A     87  59  38 MISG        N/A
N.O. INTL ARPT MOSUNNY   82  57  42 VRB3      29.91F
N.O. LAKEFRONT SUNNY     79  62  56 NW5       29.92F
N.O. DOWNTOWN*   N/A     84  54  34 N5        29.92F
SLIDELL        MOSUNNY   81  56  42 VRB7      29.90F
BATON ROUGE    MOSUNNY   85  53  33 VRB7      29.90F
BOOTHVILLE     SUNNY     78  61  55 E5        29.93F
BELLE CHASSE   CLOUDY    80  59  48 CALM      29.91F
BOGALUSA*        N/A     86  53  32 CALM      29.91F
GALLIANO*      MOCLDY    81  64  57 S7        29.92F
NEW ROADS*       N/A     82  53  36 CALM      29.91F
GONZALES*        N/A     83  55  37 CALM      29.90F
HAMMOND*       MOSUNNY   84  48  28 CALM      29.92F
HOUMA*         MOSUNNY   84  57  39 SW7       29.91F
PORT FOURCHON* CLEAR     77  63  61 S7        29.94F

$$

MSZ070-080>082-232200-
SOUTHERN MISSISSIPPI

CITY           SKY/WX    TMP DP  RH WIND       PRES   REMARKS
MCCOMB         SUNNY     82  46  28 W7        29.91F
GULFPORT       SUNNY     79  63  57 S7        29.90F
BILOXI         SUNNY     76  67  75 S12       29.90F
PASCAGOULA     SUNNY     78  65  63 SW7       29.90F
STENNIS ARPT*  MOSUNNY   82  61  47 S10       29.91F

$$

COASTAL OBSERVATIONS
LAKE AND NEARSHORE STATIONS

STATION/POSITION TIME  TEMP    WIND        PRES    WAVE
                       AIR SEA DIR/SP/G            HT/PER
                 (UTC) (F)     (DEG/KT/KT) (MB)    (FT/S)
PASCAGOULA       2100   75     220/  8/ 11 1012.3
WAVELAND YACHT   2100   75 73  190/  8/ 11 1012.0
GRAND ISLE       2100   76 71  180/  5/  8 1014.0
SOUTHWEST PASS   2100   73 61  190/  5/  6 1013.9
NEW CANAL        2100   78 71  320/  2/  4 1013.4
SHELL BEACH      2100   78 70  140/  2/  7 1013.0

OFFSHORE STATIONS

STATION/POSITION TIME  TEMP    WIND        PRES    WAVE
                       AIR SEA DIR/SP/G            HT/PER
                 (UTC) (F)     (DEG/KT/KT) (MB)    (FT/S)
64 S DAUPHIN ISL 1951   71 73   CALM  /  4 1013.7

$$




USA.gov is the U.S. government's official web portal to all federal, state and local government web resources and services.